Flag for U.S.A. Weather past 2 weeks in Metairie, Louisiana, U.S.A.

Now
78 °F

Passing clouds.


Feels Like: 80 °F
Forecast: 70 / 82 °F
Wind: 9 mph from Northeast

Location: New Orleans International Airport

Current Time: May 22, 2015 at 2:39:35 PM

Latest Report: May 22, 2015 at 1:53 PM


Visibility: 10 mi

Pressure: 30.16 "Hg

Humidity: 62%

Dew point: 64 °F

Location of MetairieLocation

Historic Weather in Metairie — Graph

°F

Metairie temperature yesterday

Maximum temperature yesterday: 88 °F (at 2:53 PM)
Minimum temperature yesterday: 70 °F (at 5:00 PM)
Average temperature yesterday: 78 °F

Past Weeks' High & Low Weather Summary

 TemperatureHumidityPressure
High89 °F (May 20, 3:53 PM)91% (May 15, 9:53 PM)30.21 "Hg (May 15, 9:53 PM)
Low68 °F (May 8, 5:53 AM)46% (May 7, 2:53 PM)29.97 "Hg (May 20, 5:53 PM)
Average78 °F74%30.08 "Hg
* Reported May 7 12:53 PM — May 22 12:53 PM, Metairie, Weather by CustomWeather, © 2015

Note: Actual official high and low records may vary slightly from our data, if they occured in-between our weather recording intervals... More about our weather records

Advertising

Metairie weather history for previous 24 hours

 ConditionsComfort  
Time TempWeatherWind HumidityBarometerVisibility
12:53 PM
Fri, May 22
77 °FScattered clouds.10 mph64%30.16 "Hg10 mi
11:53 AM74 °FPartly sunny.7 mph67%30.18 "Hg10 mi
10:53 AM72 °FPartly sunny.10 mph68%30.19 "Hg10 mi
9:53 AM70 °FOvercast.10 mph73%30.19 "Hg10 mi
8:53 AM69 °FOvercast.12 mph79%30.18 "Hg10 mi
7:53 AM68 °FOvercast.16 mph82%30.18 "Hg10 mi
6:53 AM69 °FOvercast.15 mph81%30.16 "Hg10 mi
5:53 AM70 °FOvercast.14 mph81%30.13 "Hg10 mi
4:53 AM71 °FLow clouds.13 mph84%30.10 "Hg10 mi
3:53 AM71 °FLow clouds.10 mph87%30.09 "Hg8 mi
2:53 AM72 °FLow clouds.13 mph84%30.08 "Hg10 mi
1:53 AM73 °FMostly cloudy.13 mph84%30.07 "Hg10 mi
12:53 AM74 °FOvercast.14 mph85%30.07 "Hg10 mi
11:53 PM
Thu, May 21
75 °FMostly cloudy.10 mph82%30.07 "Hg10 mi
10:53 PM74 °FPassing clouds.8 mph82%30.07 "Hg10 mi
9:53 PM73 °FPassing clouds.3 mph88%30.06 "Hg10 mi
8:53 PM74 °FPartly cloudy.7 mph85%30.05 "Hg10 mi
7:53 PM74 °FMostly cloudy.10 mph82%30.05 "Hg10 mi
6:53 PM73 °FThunderstorms. Mostly cloudy.8 mph84%30.04 "Hg10 mi
5:53 PM73 °FThunderstorms. Fog.8 mph88%30.06 "Hg4 mi
5:03 PM70 °FStrong thunderstorms. Fog.25 mph87%30.05 "Hg1 mi
5:00 PM70 °FStrong thunderstorms. Cloudy.20 mph81%30.04 "Hg1 mi
3:53 PM84 °FThunderstorms. Broken clouds.10 mph63%29.99 "Hg10 mi
2:53 PM88 °FBroken clouds.5 mph54%29.99 "Hg10 mi
Weather by CustomWeather, © 2015

See weather overviewHow to use our weather pages